Regional Weather Roundup
Issued by NWS

Home | Current Version | Previous Version | Graphics & Text | Print | Product List | Glossary On
Versions: 1 2 3 4 5 6 7 8 9 10 11 12 13 14 15 16 17 18 19 20 21 22 23 24 25 26 27
000
ASUS45 KTFX 280610
RWRMT
MONTANA REGIONAL WEATHER ROUNDUP
NATIONAL WEATHER SERVICE GREAT FALLS MT
1200 AM MDT SAT MAY 28 2016

NOTE: "FAIR" INDICATES FEW OR NO CLOUDS BELOW 12000 FEET WITH NO
SIGNIFICANT WEATHER AND/OR OBSTRUCTIONS TO VISIBILITY.

MTZ001>007-043-280700-
WEST OF THE DIVIDE

CITY           SKY/WX    TMP DP  RH WIND       PRES   REMARKS
KALISPELL      CLOUDY    45  41  86 W3        29.99R
MISSOULA       CLOUDY    44  36  73 NW6       30.03R
BUTTE          CLEAR     39  36  89 S7        30.01S
MULLAN PASS    PTCLDY    34  24  67 W6        30.02S WCI  29
ANACONDA         N/A     39  34  81 W8        30.01R
DEER LODGE       N/A     43  32  65 NE3       30.02R
EUREKA           N/A     48  37  66 SE6       29.99S
HAMILTON         N/A     48  32  53 SE3       30.01R
LIBBY            N/A     41  37  87 CALM      30.01R
$$

MTZ008-052>055-280700-
SOUTHWEST MONTANA

CITY           SKY/WX    TMP DP  RH WIND       PRES   REMARKS
BOZEMAN        CLOUDY    47  43  86 S5        29.99S
DILLON         CLOUDY    42  39  89 SW3       30.00S
W YELLOWSTONE  CLOUDY    39  39 100 CALM      30.01R
ENNIS          CLOUDY    43  41  93 N5        30.06S
$$

MTZ009-010-012-014-046-048-049-054-280700-
EAST SLOPES AND CENTRAL MONTANA

CITY           SKY/WX    TMP DP  RH WIND       PRES   REMARKS
CUT BANK       CLEAR     42  33  70 W14       29.92S
GREAT FALLS    CLOUDY    51  42  71 S3        29.94R
MALMSTROM AFB  CLOUDY    49  46  88 SW6       29.94R
HELENA         MOCLDY    50  36  58 W7        29.96R
CHOTEAU          N/A     43  34  70 NW8       29.94S
$$

MTZ011-013-016-021-045-047-050-051-280700-
NORTH CENTRAL MONTANA

CITY           SKY/WX    TMP DP  RH WIND       PRES   REMARKS
HAVRE          CLOUDY    53  49  86 SW16      29.87S
LEWISTOWN      LGT RAIN  48  45  89 SW9       29.93S
N BAR RANCH    CLOUDY    46  43  87 W7G13     29.93S
CHINOOK          N/A     55  52  88 CALM      29.87F
$$

MTZ017>020-022>027-061-062-280700-
NORTHEAST MONTANA

CITY           SKY/WX    TMP DP  RH WIND       PRES   REMARKS
GLASGOW        CLOUDY    56  50  80 E9        29.83S
JORDAN           N/A     53  49  86 CALM      29.84S
SIDNEY         CLEAR     54  50  87 N7        29.85S
WOLF POINT     CLEAR     52  49  89 E6        29.86R
PLENTYWOOD       N/A     54  54 100 E9        29.88F
POPLAR           N/A     55  52  88 E9        29.86S
$$

MTZ028>42-056>058-280700-
SOUTHCENTRAL AND SOUTHEAST MONTANA

CITY           SKY/WX    TMP DP  RH WIND       PRES   REMARKS
BAKER          CLEAR     44  40  85 S5        29.86R
BILLINGS       CLOUDY    51  48  89 SW6       29.91R
LIVINGSTON     CLOUDY    47  44  90 SW9       29.97S
MILES CITY     CLOUDY    53  49  86 NW8       29.84S
FORSYTH          N/A     57  50  77 W5        29.85S
$$

REGIONAL REPORTS...DAKOTAS

CITY           SKY/WX    TMP DP  RH WIND       PRES   REMARKS
WILLISTON      CLOUDY    56  53  90 N7        29.86S
MINOT          CLOUDY    58  54  86 N9        29.87S
DICKINSON      CLEAR     50  45  83 E7        29.84R
BEACH            N/A     48  48 100 CALM      29.88R
CROSBY         CLOUDY    54  54 100 E14       29.92S
WATFORD CITY   CLOUDY    55  55 100 E7        29.86S
BISMARCK       CLOUDY    55  51  86 CALM      29.84R
GRAND FORKS    CLOUDY    63  58  83 SE12      29.80R
FARGO          MOCLDY    62  57  83 SE7       29.80R
BUFFALO SD       N/A     50  44  80 SE7       29.81R
RAPID CITY     CLEAR     46  43  89 NW3       29.86S
$$

REGIONAL REPORTS...WYOMING/IDAHO/WASHINGTON

CITY           SKY/WX    TMP DP  RH WIND       PRES   REMARKS
GILLETTE       CLOUDY    42  39  89 W3        29.88S
SHERIDAN       CLOUDY    49  45  86 W7        29.92S
BUFFALO WY     CLOUDY    50  42  74 NW13G26   29.94R
CODY           CLEAR     48  45  87 E3        29.93R
YELLOWSTONE LA   N/A     36  33  89 NW5       30.06R
IDAHO FALLS    CLEAR     47  38  71 SW8       29.96R
SALMON         CLOUDY    48  36  61 N5        29.98S
BOISE          CLEAR     54  28  36 NW7       29.98R
SPOKANE        PTCLDY    50  32  50 S7        29.98S
$$

REGIONAL REPORTS...ALBERTA

CITY           SKY/WX    TMP DP  RH WIND       PRES   REMARKS
EDMONTON       CLOUDY    52  46  82 SW9       29.81R
CALGARY        PTCLDY    45  41  87 N2        29.86R
LETHBRIDGE     CLEAR     43  34  70 SW10      29.88R
MEDICINE HAT   CLOUDY    55  43  62 SW7       29.85R
WATERTON GATE    N/A     45  28  53 W18G26      N/A
MILK RIVER       N/A     41  36  81 NW9         N/A
ONEFOUR          N/A     52  48  87 N3          N/A
$$

REGIONAL REPORTS...SASKATCHEWAN

CITY           SKY/WX    TMP DP  RH WIND       PRES   REMARKS
SWIFT CURRENT  CLOUDY    54  48  82 SE7       29.86S
REGINA         CLEAR     54  50  87 E10       29.92S
SASKATOON      MOCLDY    57  50  77 E6        29.91S
CYPRESS HILLS    N/A     46  43  87 SE3         N/A
VAL MARIE        N/A     55  50  82 SE2         N/A
ROCKGLEN         N/A     50  48  93 E5          N/A
ASSINIBOIA       N/A     54  52  94 S6          N/A
$$




USA.gov is the U.S. government's official web portal to all federal, state and local government web resources and services.